When you browse on this site, cookies collect data to enhance your experience and personalize the content and advertising you see.
Visit our Privacy Policy to learn more. By continuing to use the site, you agree to this use of cookies and data.
  • In Romania
  • List of Countries
  • For 7 days
  • Water Temperature
  • Satellite Maps
  • Weather Map
  • Weather Widgets
  • user-avatar
    Login

    Hourly Weather Nha Trang

    Today, 20 April, Saturday

    Time Temperature Precipitation Wind Pressure Humidity
    00:00 +28°C° 0 mm 2 mps 745 mmHg 80%
    01:00 +28°C° 0 mm 2 mps 745 mmHg 80%
    02:00 +28°C° 0 mm 2 mps 745 mmHg 80%
    03:00 +28°C° 0 mm 2 mps 745 mmHg 80%
    04:00 +27°C° 0 mm 2 mps 745 mmHg 80%
    05:00 +29°C° 0 mm 2 mps 745 mmHg 75%
    06:00 +30°C° 0 mm 2 mps 745 mmHg 70%
    07:00 +31°C° 0 mm 2 mps 746 mmHg 64%
    08:00 +35°C° 0 mm 2 mps 746 mmHg 56%
    09:00 +37°C° 0 mm 3 mps 746 mmHg 48%
    10:00 +39°C° 0 mm 3 mps 746 mmHg 40%
    11:00 +41°C° 0 mm 4 mps 746 mmHg 39%
    12:00 +41°C° 0 mm 5 mps 745 mmHg 38%
    13:00 +42°C° 0 mm 5 mps 745 mmHg 37%
    14:00 +41°C° 0 mm 5 mps 744 mmHg 41%
    15:00 +39°C° 0 mm 5 mps 744 mmHg 45%
    16:00 +37°C° 0 mm 5 mps 743 mmHg 49%
    17:00 +35°C° 0 mm 4 mps 743 mmHg 60%
    18:00 +33°C° 0 mm 4 mps 744 mmHg 70%
    19:00 +30°C° 0 mm 3 mps 744 mmHg 80%
    20:00 +29°C° 0 mm 3 mps 744 mmHg 82%
    21:00 +29°C° 0 mm 3 mps 745 mmHg 83%
    22:00 +28°C° 0 mm 3 mps 746 mmHg 85%
    23:00 +28°C° 0 mm 3 mps 746 mmHg 85%

    Tomorrow, 21 April, Sunday

    Time Temperature Precipitation Wind Pressure Humidity
    00:00 +28°C° 0 mm 3 mps 745 mmHg 85%
    01:00 +28°C° 0 mm 3 mps 745 mmHg 84%
    02:00 +28°C° 0 mm 3 mps 745 mmHg 85%
    03:00 +27°C° 0 mm 3 mps 745 mmHg 85%
    04:00 +27°C° 0 mm 3 mps 744 mmHg 85%
    05:00 +28°C° 0 mm 2 mps 745 mmHg 80%
    06:00 +30°C° 0 mm 2 mps 745 mmHg 75%
    07:00 +31°C° 0 mm 2 mps 746 mmHg 69%
    08:00 +34°C° 0 mm 2 mps 746 mmHg 61%
    09:00 +36°C° 0 mm 3 mps 746 mmHg 52%
    10:00 +39°C° 0 mm 3 mps 747 mmHg 43%
    11:00 +40°C° 0 mm 4 mps 746 mmHg 42%
    12:00 +40°C° 0 mm 4 mps 745 mmHg 41%
    13:00 +41°C° 0 mm 5 mps 745 mmHg 39%
    14:00 +40°C° 0 mm 5 mps 744 mmHg 43%
    15:00 +39°C° 0 mm 5 mps 744 mmHg 47%
    16:00 +36°C° 0 mm 5 mps 743 mmHg 51%
    17:00 +34°C° 0 mm 4 mps 744 mmHg 61%
    18:00 +31°C° 0 mm 3 mps 744 mmHg 71%
    19:00 +29°C° 0 mm 3 mps 745 mmHg 80%
    20:00 +28°C° 0 mm 3 mps 745 mmHg 82%
    21:00 +28°C° 0 mm 3 mps 746 mmHg 84%
    22:00 +27°C° 0 mm 3 mps 746 mmHg 86%
    23:00 +27°C° 0 mm 2 mps 746 mmHg 86%

    Day after tomorrow, 22 April, Monday

    Time Temperature Precipitation Wind Pressure Humidity
    00:00 +27°C° 0 mm 2 mps 746 mmHg 87%
    01:00 +27°C° 0 mm 2 mps 745 mmHg 88%
    02:00 +26°C° 0 mm 2 mps 745 mmHg 89%
    03:00 +26°C° 0 mm 2 mps 745 mmHg 90%
    04:00 +26°C° 0 mm 2 mps 745 mmHg 92%
    05:00 +27°C° 0 mm 2 mps 745 mmHg 84%
    06:00 +29°C° 0 mm 2 mps 746 mmHg 76%
    07:00 +30°C° 0 mm 1 mps 746 mmHg 69%
    08:00 +32°C° 0 mm 2 mps 746 mmHg 56%
    09:00 +36°C° 0 mm 2 mps 747 mmHg 43%
    10:00 +38°C° 0 mm 3 mps 747 mmHg 31%
    11:00 +39°C° 0 mm 3 mps 746 mmHg 33%
    12:00 +40°C° 0 mm 4 mps 746 mmHg 34%
    13:00 +40°C° 0 mm 4 mps 745 mmHg 36%
    14:00 +38°C° 0 mm 4 mps 745 mmHg 42%
    15:00 +37°C° 0 mm 4 mps 744 mmHg 48%
    16:00 +36°C° 0 mm 4 mps 744 mmHg 54%
    17:00 +34°C° 0 mm 3 mps 744 mmHg 65%
    18:00 +30°C° 0 mm 2 mps 745 mmHg 76%
    19:00 +28°C° 0 mm 2 mps 746 mmHg 86%
    20:00 +28°C° 0 mm 1 mps 746 mmHg 88%
    21:00 +27°C° 0 mm 1 mps 747 mmHg 90%
    22:00 +27°C° 0 mm 1 mps 747 mmHg 91%
    23:00 +27°C° 0 mm 1 mps 747 mmHg 91%

    23 April, Tuesday

    Time Temperature Precipitation Wind Pressure Humidity
    00:00 +27°C° 0 mm 1 mps 746 mmHg 91%
    01:00 +26°C° 0 mm 1 mps 746 mmHg 92%
    02:00 +26°C° 0 mm 1 mps 746 mmHg 91%
    03:00 +26°C° 0 mm 1 mps 746 mmHg 90%
    04:00 +26°C° 0 mm 1 mps 746 mmHg 89%
    05:00 +27°C° 0 mm 1 mps 746 mmHg 81%
    06:00 +29°C° 0 mm 1 mps 747 mmHg 73%
    07:00 +30°C° 0 mm 1 mps 747 mmHg 65%
    08:00 +33°C° 0 mm 1 mps 747 mmHg 56%
    09:00 +35°C° 0 mm 1 mps 748 mmHg 48%
    10:00 +38°C° 0 mm 2 mps 748 mmHg 39%
    11:00 +39°C° 0 mm 2 mps 747 mmHg 38%
    12:00 +39°C° 0 mm 3 mps 746 mmHg 37%
    13:00 +41°C° 0 mm 4 mps 746 mmHg 36%
    14:00 +38°C° 0 mm 4 mps 745 mmHg 42%
    15:00 +37°C° 0 mm 3 mps 745 mmHg 48%
    16:00 +36°C° 0 mm 3 mps 745 mmHg 54%
    17:00 +33°C° 0 mm 3 mps 745 mmHg 66%
    18:00 +30°C° 0 mm 2 mps 746 mmHg 78%
    19:00 +28°C° 0 mm 1 mps 746 mmHg 90%
    20:00 +27°C° 0 mm 1 mps 747 mmHg 92%
    21:00 +27°C° 0 mm 1 mps 747 mmHg 94%
    22:00 +27°C° 0 mm 1 mps 748 mmHg 95%
    23:00 +26°C° 0 mm 1 mps 747 mmHg 95%

    24 April, Wednesday

    Time Temperature Precipitation Wind Pressure Humidity
    00:00 +26°C° 0 mm 1 mps 747 mmHg 95%
    01:00 +26°C° 0 mm 1 mps 746 mmHg 95%
    02:00 +25°C° 0 mm 1 mps 746 mmHg 93%
    03:00 +25°C° 0 mm 1 mps 746 mmHg 92%
    04:00 +25°C° 0 mm 1 mps 746 mmHg 90%
    05:00 +27°C° 0 mm 1 mps 747 mmHg 82%
    06:00 +28°C° 0 mm 1 mps 747 mmHg 73%
    07:00 +29°C° 0 mm 1 mps 748 mmHg 65%
    08:00 +32°C° 0 mm 1 mps 748 mmHg 55%
    09:00 +35°C° 0 mm 1 mps 748 mmHg 45%
    10:00 +38°C° 0 mm 2 mps 748 mmHg 35%
    11:00 +39°C° 0 mm 2 mps 747 mmHg 34%
    12:00 +39°C° 0 mm 3 mps 747 mmHg 33%
    13:00 +41°C° 0 mm 4 mps 746 mmHg 32%
    14:00 +38°C° 0 mm 3 mps 745 mmHg 38%
    15:00 +37°C° 0 mm 3 mps 745 mmHg 43%
    16:00 +36°C° 0 mm 3 mps 745 mmHg 49%
    17:00 +32°C° 0 mm 2 mps 745 mmHg 61%
    18:00 +30°C° 0 mm 2 mps 746 mmHg 73%
    19:00 +27°C° 0 mm 1 mps 746 mmHg 86%
    20:00 +27°C° 0 mm 1 mps 747 mmHg 87%
    21:00 +27°C° 0 mm 1 mps 747 mmHg 89%
    22:00 +26°C° 0 mm 1 mps 747 mmHg 91%
    23:00 +26°C° 0 mm 1 mps 747 mmHg 90%

    25 April, Thursday

    Time Temperature Precipitation Wind Pressure Humidity
    00:00 +26°C° 0 mm 1 mps 746 mmHg 89%
    01:00 +26°C° 0 mm 2 mps 746 mmHg 87%
    02:00 +26°C° 0 mm 2 mps 746 mmHg 85%
    03:00 +26°C° 0 mm 2 mps 746 mmHg 82%
    04:00 +26°C° 0 mm 2 mps 746 mmHg 79%
    05:00 +27°C° 0 mm 1 mps 746 mmHg 71%
    06:00 +29°C° 0 mm 1 mps 747 mmHg 64%
    07:00 +30°C° 0 mm 1 mps 747 mmHg 56%
    08:00 +33°C° 0 mm 1 mps 747 mmHg 49%
    09:00 +36°C° 0 mm 2 mps 747 mmHg 42%
    10:00 +39°C° 0 mm 2 mps 748 mmHg 36%
    11:00 +39°C° 0 mm 3 mps 747 mmHg 37%
    12:00 +39°C° 0 mm 3 mps 746 mmHg 39%
    13:00 +40°C° 0 mm 4 mps 745 mmHg 40%
    14:00 +38°C° 0 mm 4 mps 745 mmHg 47%
    15:00 +37°C° 0 mm 4 mps 745 mmHg 53%
    16:00 +36°C° 0 mm 4 mps 744 mmHg 59%
    17:00 +34°C° 0 mm 3 mps 745 mmHg 69%
    18:00 +31°C° 0 mm 3 mps 745 mmHg 78%
    19:00 +29°C° 0 mm 2 mps 746 mmHg 87%
    20:00 +28°C° 0 mm 2 mps 746 mmHg 88%
    21:00 +28°C° 0 mm 2 mps 746 mmHg 89%
    22:00 +28°C° 0 mm 2 mps 747 mmHg 90%
    23:00 +27°C° 0 mm 2 mps 746 mmHg 90%
    Show more